ISS (ZARYA) 1 25544U 98067A 26164.83523428 .00008738 00000+0 16534-3 0 9991 2 25544 51.6333 316.6832 0004955 182.4672 177.6293 15.49214103571238 POISK 1 36086U 09060A 26164.83523428 .00008738 00000+0 16534-3 0 9999 2 36086 51.6333 316.6832 0004955 182.4672 177.6293 15.49214103570768 CSS (TIANHE) 1 48274U 21035A 26164.90558082 .00024016 00000+0 28412-3 0 9994 2 48274 41.4695 341.9716 0007789 50.3492 309.8033 15.60676113292657 ISS (NAUKA) 1 49044U 21066A 26164.83523428 .00008738 00000+0 16534-3 0 9997 2 49044 51.6333 316.6832 0004955 182.4672 177.6293 15.49214103570766 FREGAT DEB 1 49271U 11037PF 26151.14915702 .00018955 00000+0 30994-1 0 9992 2 49271 51.6227 53.0895 0914379 245.3590 104.9405 12.41880577222933 CSS (WENTIAN) 1 53239U 22085A 26164.90558082 .00024016 00000+0 28412-3 0 9997 2 53239 41.4695 341.9716 0007789 50.3492 309.8033 15.60676113288233 CSS (MENGTIAN) 1 54216U 22143A 26164.90558082 .00024016 00000+0 28412-3 0 9998 2 54216 41.4695 341.9716 0007789 50.3492 309.8033 15.60676113293213 HRC MONOBLOCK CAMERA 1 66052U 98067XR 26164.64556455 .00078680 00000+0 55144-3 0 9998 2 66052 51.6254 297.3588 0001217 264.7071 95.3788 15.73511265 37448 SZ-21 MODULE 1 66515U 25246C 26164.73115900 .00045764 00000+0 28446-3 0 9999 2 66515 41.4731 328.8460 0006751 328.3391 31.7047 15.76117488 33190 SOYUZ-MS 28 1 66664U 25275A 26164.83523428 .00008738 00000+0 16534-3 0 9990 2 66664 51.6333 316.6832 0004955 182.4672 177.6293 15.49214103570763 DUPLEX 1 66906U 98067XS 26164.66253707 .00040572 00000+0 45291-3 0 9993 2 66906 51.6283 307.2675 0003571 191.6773 168.4139 15.62359215 30109 ISS OBJECT XY 1 66912U 98067XY 26164.59697964 .00446527 91598-4 10891-2 0 9993 2 66912 51.6184 293.1679 0009882 307.8313 52.1800 15.95551128 30270 KNACKSAT-2 1 67683U 98067XZ 26164.69872930 .00046958 00000+0 57858-3 0 9990 2 67683 51.6303 312.0209 0009611 199.6131 160.4494 15.59677165 19734 CORAL 1 67684U 98067YA 26164.64600819 .00193633 00000+0 12268-2 0 9999 2 67684 51.6236 306.3758 0008953 234.3842 125.6324 15.75373271 19801 GXIBA-1 1 67685U 98067YB 26164.64051124 .00057851 00000+0 66935-3 0 9991 2 67685 51.6293 311.6271 0010794 197.7722 162.2896 15.61216829 19732 UITMSAT-2 1 67686U 98067YC 26164.65955402 .00077799 00000+0 79430-3 0 9992 2 67686 51.6283 310.2529 0006213 189.9404 170.1469 15.64347320 19754 LEOPARD 1 67687U 98067YD 26164.66505791 .00053200 00000+0 63125-3 0 9991 2 67687 51.6312 311.8054 0006772 180.2446 179.8545 15.60637787 19653 HMU-SAT2 1 67688U 98067YE 26164.64571012 .00066205 00000+0 71828-3 0 9997 2 67688 51.6291 310.9199 0006458 185.6387 174.4535 15.62864985 19669 CREW DRAGON 12 1 67796U 26031A 26164.83523428 .00008738 00000+0 16534-3 0 9998 2 67796 51.6333 316.6832 0004955 182.4672 177.6293 15.49214103571345 PROGRESS-MS 33 1 68319U 26058A 26164.83523428 .00008738 00000+0 16534-3 0 9999 2 68319 51.6333 316.6832 0004955 182.4672 177.6293 15.49214103570762 CYGNUS NG-24 1 68689U 26079A 26164.83523428 .00008738 00000+0 16534-3 0 9992 2 68689 51.6333 316.6832 0004955 182.4672 177.6293 15.49214103571347 PROGRESS-MS 34 1 68837U 26093A 26164.83523428 .00008738 00000+0 16534-3 0 9993 2 68837 51.6333 316.6832 0004955 182.4672 177.6293 15.49214103571342 TIANZHOU-10 1 69049U 26102A 26164.90558082 .00024016 00000+0 28412-3 0 9997 2 69049 41.4695 341.9716 0007789 50.3492 309.8033 15.60676113 5360 DRAGON CRS-34 1 69103U 26107A 26164.83523428 .00008738 00000+0 16534-3 0 9996 2 69103 51.6333 316.6832 0004955 182.4672 177.6293 15.49214103570764 SHENZHOU-23 (SZ-23) 1 69180U 26113A 26164.90558082 .00024016 00000+0 28412-3 0 9995 2 69180 41.4695 341.9716 0007789 50.3492 309.8033 15.60676113292948